{"data":{"norad_id":27939,"intl_designator":"2003-042A","name":"MOZHAETS 4 (RS22)","alt_names":[],"object_type":"PAYLOAD","status":"ACTIVE","operator":null,"country":"CIS","launch_date":"2003-09-27","launch_site_code":"PLMSC","launch_vehicle":null,"mission":null,"orbit_class":"UNKNOWN","rcs_meters":0.687,"size_class":null,"mass_kg":null,"dimensions":null,"purposes":["comms"],"wikipedia_slug":null,"has_3d_model":false,"image_url":null,"decayed_at":null,"tle_current":{"epoch":"2026-05-25T04:50:58.658784Z","epoch_age_seconds":50953,"freshness":"FRESH","line1":"1 27939U 03042A   26145.20206781  .00000379  00000+0  66769-4 0  9999","line2":"2 27939  98.3475 328.9125 0011018 348.6255 130.9673 14.73418067212164","mean_motion":14.73418067,"eccentricity":0.0011018,"inclination_deg":98.3475,"raan_deg":328.9125,"arg_perigee_deg":348.6255,"mean_anomaly_deg":130.9673,"bstar":6.6769e-5,"rev_number":21216,"period_min":97.731935847099,"perigee_km":642.43360401876,"apogee_km":657.92119763242,"semimajor_km":7028.3144008256,"source":"CELESTRAK","updated_at":"2026-05-25T13:38:23.281897Z"}}}